owner,sensor,date,latitude,longitude,vertical_datum,wind_speed,wind_to_direction,wind_speed_of_gust,qcFlag 
CenGOOS,ioos:station:wmo:42067:1,2015-12-01T02:40Z,30.0430,-88.6490,5.0,1.2,121.7,1.4,'1111122,1111122,1111122' 
CenGOOS,ioos:station:wmo:42067:1,2015-12-01T05:40Z,30.0430,-88.6490,5.0,2.5,183.9,3.0,'1111122,1111122,1111122' 
CenGOOS,ioos:station:wmo:42067:1,2015-12-01T08:40Z,30.0430,-88.6490,5.0,1.8,191.6,2.1,'1111122,1111122,1111122' 
CenGOOS,ioos:station:wmo:42067:1,2015-12-01T11:40Z,30.0430,-88.6490,5.0,1.7,212.1,2.2,'1111122,1111122,1111122' 
CenGOOS,ioos:station:wmo:42067:1,2015-12-01T14:40Z,30.0430,-88.6490,5.0,1.9,162.7,2.5,'1111122,1111122,1111122' 
CenGOOS,ioos:station:wmo:42067:1,2015-12-01T17:40Z,30.0430,-88.6490,5.0,1.5,189.9,2.0,'1111122,1111122,1111122' 
CenGOOS,ioos:station:wmo:42067:1,2015-12-01T20:40Z,30.0430,-88.6490,5.0,2.1,182.2,2.4,'1111122,1111122,1111122' 
CenGOOS,ioos:station:wmo:42067:1,2015-12-01T23:40Z,30.0430,-88.6490,5.0,3.0,187.9,3.5,'1111122,1111122,1111122' 
CenGOOS,ioos:station:wmo:42067:1,2015-12-02T02:40Z,30.0430,-88.6490,5.0,2.9,204.0,3.2,'1111122,1111122,1111122' 
CenGOOS,ioos:station:wmo:42067:1,2015-12-02T05:40Z,30.0430,-88.6490,5.0,0.8,256.1,1.8,'1111122,1111122,1111122' 
CenGOOS,ioos:station:wmo:42067:1,2015-12-02T08:40Z,30.0430,-88.6490,5.0,2.1,291.5,2.5,'1111122,1111122,1111122' 
CenGOOS,ioos:station:wmo:42067:1,2015-12-02T11:40Z,30.0430,-88.6490,5.0,8.5,332.7,10.3,'1111122,1111122,1111122' 
CenGOOS,ioos:station:wmo:42067:1,2015-12-02T14:40Z,30.0430,-88.6490,5.0,9.3,0.8,11.2,'1111122,1111122,1111122' 
CenGOOS,ioos:station:wmo:42067:1,2015-12-02T17:40Z,30.0430,-88.6490,5.0,4.8,353.2,6.4,'1111122,1111122,1111122' 
CenGOOS,ioos:station:wmo:42067:1,2015-12-02T20:40Z,30.0430,-88.6490,5.0,3.8,357.7,5.6,'1111122,1111122,1111122' 
CenGOOS,ioos:station:wmo:42067:1,2015-12-02T23:40Z,30.0430,-88.6490,5.0,5.3,343.7,7.0,'1111122,1111122,1111122' 
CenGOOS,ioos:station:wmo:42067:1,2015-12-03T02:40Z,30.0430,-88.6490,5.0,7.5,340.0,9.6,'1111122,1111122,1111122' 
CenGOOS,ioos:station:wmo:42067:1,2015-12-03T05:40Z,30.0430,-88.6490,5.0,8.0,342.7,9.9,'1111122,1111122,1111122' 
CenGOOS,ioos:station:wmo:42067:1,2015-12-03T08:40Z,30.0430,-88.6490,5.0,9.1,1.0,11.1,'1111122,1111122,1111122' 
CenGOOS,ioos:station:wmo:42067:1,2015-12-03T11:40Z,30.0430,-88.6490,5.0,8.9,15.7,11.9,'1111122,1111122,1111122' 
CenGOOS,ioos:station:wmo:42067:1,2015-12-03T14:40Z,30.0430,-88.6490,5.0,8.8,20.6,10.6,'1111122,1111122,1111122' 
CenGOOS,ioos:station:wmo:42067:1,2015-12-03T20:40Z,30.0430,-88.6490,5.0,6.4,6.7,8.2,'1111122,1111122,1111122' 
CenGOOS,ioos:station:wmo:42067:1,2015-12-04T02:40Z,30.0430,-88.6490,5.0,11.0,11.1,13.6,'1111122,1111122,1111122' 
CenGOOS,ioos:station:wmo:42067:1,2015-12-04T05:40Z,30.0430,-88.6490,5.0,9.9,22.6,12.3,'1111122,1111122,1111122' 
CenGOOS,ioos:station:wmo:42067:1,2015-12-04T08:40Z,30.0430,-88.6490,5.0,9.7,25.7,11.8,'1111122,1111122,1111122' 
CenGOOS,ioos:station:wmo:42067:1,2015-12-04T14:40Z,30.0430,-88.6490,5.0,7.6,34.4,9.6,'1111122,1111122,1111122' 
CenGOOS,ioos:station:wmo:42067:1,2015-12-04T17:40Z,30.0430,-88.6490,5.0,5.9,44.4,7.6,'1111122,1111122,1111122' 
CenGOOS,ioos:station:wmo:42067:1,2015-12-04T20:40Z,30.0430,-88.6490,5.0,3.3,26.3,4.8,'1111122,1111122,1111122' 
CenGOOS,ioos:station:wmo:42067:1,2015-12-04T23:40Z,30.0430,-88.6490,5.0,7.3,27.9,8.7,'1111122,1111122,1111122' 
CenGOOS,ioos:station:wmo:42067:1,2015-12-05T05:40Z,30.0430,-88.6490,5.0,9.1,52.7,11.2,'1111122,1111122,1111122' 
CenGOOS,ioos:station:wmo:42067:1,2015-12-05T08:40Z,30.0430,-88.6490,5.0,8.6,55.8,10.0,'1111122,1111122,1111122' 
CenGOOS,ioos:station:wmo:42067:1,2015-12-05T17:40Z,30.0430,-88.6490,5.0,6.5,41.0,7.9,'1111122,1111122,1111122' 
CenGOOS,ioos:station:wmo:42067:1,2015-12-05T23:40Z,30.0430,-88.6490,5.0,4.1,18.3,5.1,'1111122,1111122,1111122' 
CenGOOS,ioos:station:wmo:42067:1,2015-12-06T05:40Z,30.0430,-88.6490,5.0,7.8,73.3,8.9,'1111122,1111122,1111122' 
CenGOOS,ioos:station:wmo:42067:1,2015-12-06T08:40Z,30.0430,-88.6490,5.0,7.6,56.0,9.1,'1111122,1111122,1111122' 
CenGOOS,ioos:station:wmo:42067:1,2015-12-06T14:40Z,30.0430,-88.6490,5.0,7.0,64.4,8.6,'1111122,1111122,1111122' 
CenGOOS,ioos:station:wmo:42067:1,2015-12-06T17:40Z,30.0430,-88.6490,5.0,5.7,65.9,7.1,'1111122,1111122,1111122' 
CenGOOS,ioos:station:wmo:42067:1,2015-12-06T23:40Z,30.0430,-88.6490,5.0,2.3,87.4,3.2,'1111122,1111122,1111122' 
CenGOOS,ioos:station:wmo:42067:1,2015-12-07T02:40Z,30.0430,-88.6490,5.0,4.7,68.4,5.5,'1111122,1111122,1111122' 
CenGOOS,ioos:station:wmo:42067:1,2015-12-07T05:40Z,30.0430,-88.6490,5.0,2.0,19.6,2.5,'1111122,1111122,1111122' 
CenGOOS,ioos:station:wmo:42067:1,2015-12-07T08:40Z,30.0430,-88.6490,5.0,4.5,8.2,5.4,'1111122,1111122,1111122' 
CenGOOS,ioos:station:wmo:42067:1,2015-12-07T11:40Z,30.0430,-88.6490,5.0,4.2,4.9,5.1,'1111122,1111122,1111122' 
CenGOOS,ioos:station:wmo:42067:1,2015-12-07T17:40Z,30.0430,-88.6490,5.0,4.6,9.1,5.6,'1111122,1111122,1111122' 
CenGOOS,ioos:station:wmo:42067:1,2015-12-07T20:40Z,30.0430,-88.6490,5.0,0.9,23.0,1.7,'1111122,1111122,1111122' 
CenGOOS,ioos:station:wmo:42067:1,2015-12-07T23:40Z,30.0430,-88.6490,5.0,1.5,273.0,1.9,'1111122,1111122,1111122' 
CenGOOS,ioos:station:wmo:42067:1,2015-12-08T02:40Z,30.0430,-88.6490,5.0,3.5,338.7,4.5,'1111122,1111122,1111122' 
CenGOOS,ioos:station:wmo:42067:1,2015-12-08T05:40Z,30.0430,-88.6490,5.0,3.8,27.9,4.4,'1111122,1111122,1111122' 
CenGOOS,ioos:station:wmo:42067:1,2015-12-08T11:40Z,30.0430,-88.6490,5.0,5.0,60.0,5.7,'1111122,1111122,1111122' 
CenGOOS,ioos:station:wmo:42067:1,2015-12-08T14:40Z,30.0430,-88.6490,5.0,4.9,75.3,5.9,'1111122,1111122,1111122' 
CenGOOS,ioos:station:wmo:42067:1,2015-12-08T17:40Z,30.0430,-88.6490,5.0,4.7,71.1,5.4,'1111122,1111122,1111122' 
CenGOOS,ioos:station:wmo:42067:1,2015-12-08T20:40Z,30.0430,-88.6490,5.0,4.0,87.3,4.9,'1111122,1111122,1111122' 
CenGOOS,ioos:station:wmo:42067:1,2015-12-08T23:40Z,30.0430,-88.6490,5.0,4.6,119.0,5.4,'1111122,1111122,1111122' 
CenGOOS,ioos:station:wmo:42067:1,2015-12-09T02:40Z,30.0430,-88.6490,5.0,3.4,182.0,4.7,'1111122,1111122,1111122' 
CenGOOS,ioos:station:wmo:42067:1,2015-12-09T05:40Z,30.0430,-88.6490,5.0,5.6,179.6,6.7,'1111122,1111122,1111122' 
CenGOOS,ioos:station:wmo:42067:1,2015-12-09T08:40Z,30.0430,-88.6490,5.0,3.2,204.8,3.9,'1111122,1111122,1111122' 
CenGOOS,ioos:station:wmo:42067:1,2015-12-09T11:40Z,30.0430,-88.6490,5.0,2.7,213.8,3.3,'1111122,1111122,1111122' 
CenGOOS,ioos:station:wmo:42067:1,2015-12-09T14:40Z,30.0430,-88.6490,5.0,1.8,194.5,2.1,'1111122,1111122,1111122' 
CenGOOS,ioos:station:wmo:42067:1,2015-12-09T17:40Z,30.0430,-88.6490,5.0,3.6,183.8,4.1,'1111122,1111122,1111122' 
CenGOOS,ioos:station:wmo:42067:1,2015-12-09T23:40Z,30.0430,-88.6490,5.0,3.9,198.5,4.8,'1111122,1111122,1111122' 
CenGOOS,ioos:station:wmo:42067:1,2015-12-10T02:40Z,30.0430,-88.6490,5.0,3.8,200.8,4.4,'1111122,1111122,1111122' 
CenGOOS,ioos:station:wmo:42067:1,2015-12-10T05:40Z,30.0430,-88.6490,5.0,4.1,205.5,4.9,'1111122,1111122,1111122' 
CenGOOS,ioos:station:wmo:42067:1,2015-12-10T14:40Z,30.0430,-88.6490,5.0,3.6,207.7,4.2,'1111122,1111122,1111122' 
CenGOOS,ioos:station:wmo:42067:1,2015-12-10T20:40Z,30.0430,-88.6490,5.0,4.3,201.7,5.1,'1111122,1111122,1111122' 
CenGOOS,ioos:station:wmo:42067:1,2015-12-10T23:40Z,30.0430,-88.6490,5.0,5.6,203.0,7.0,'1111122,1111122,1111122' 
CenGOOS,ioos:station:wmo:42067:1,2015-12-11T08:40Z,30.0430,-88.6490,5.0,5.1,201.3,6.0,'1111122,1111122,1111122' 
CenGOOS,ioos:station:wmo:42067:1,2015-12-11T11:40Z,30.0430,-88.6490,5.0,4.6,193.5,5.6,'1111122,1111122,1111122' 
CenGOOS,ioos:station:wmo:42067:1,2015-12-11T14:40Z,30.0430,-88.6490,5.0,4.8,183.8,5.7,'1111122,1111122,1111122' 
CenGOOS,ioos:station:wmo:42067:1,2015-12-11T17:40Z,30.0430,-88.6490,5.0,4.5,188.6,5.4,'1111122,1111122,1111122' 
CenGOOS,ioos:station:wmo:42067:1,2015-12-11T20:40Z,30.0430,-88.6490,5.0,4.1,170.1,4.7,'1111122,1111122,1111122' 
CenGOOS,ioos:station:wmo:42067:1,2015-12-11T23:40Z,30.0430,-88.6490,5.0,3.5,155.0,4.1,'1111122,1111122,1111122' 
CenGOOS,ioos:station:wmo:42067:1,2015-12-12T05:40Z,30.0430,-88.6490,5.0,3.2,136.8,3.5,'1111122,1111122,1111122' 
CenGOOS,ioos:station:wmo:42067:1,2015-12-12T08:40Z,30.0430,-88.6490,5.0,3.5,135.5,4.0,'1111122,1111122,1111122' 
CenGOOS,ioos:station:wmo:42067:1,2015-12-12T14:40Z,30.0430,-88.6490,5.0,4.3,145.2,4.9,'1111122,1111122,1111122' 
CenGOOS,ioos:station:wmo:42067:1,2015-12-12T17:40Z,30.0430,-88.6490,5.0,2.8,123.5,3.3,'1111122,1111122,1111122' 
CenGOOS,ioos:station:wmo:42067:1,2015-12-12T20:40Z,30.0430,-88.6490,5.0,2.2,52.2,2.6,'1111122,1111122,1111122' 
CenGOOS,ioos:station:wmo:42067:1,2015-12-12T23:40Z,30.0430,-88.6490,5.0,3.9,81.3,4.3,'1111122,1111122,1111122' 
CenGOOS,ioos:station:wmo:42067:1,2015-12-13T02:40Z,30.0430,-88.6490,5.0,5.9,90.6,7.3,'1111122,1111122,1111122' 
CenGOOS,ioos:station:wmo:42067:1,2015-12-13T05:40Z,30.0430,-88.6490,5.0,5.4,113.7,6.5,'1111122,1111122,1111122' 
CenGOOS,ioos:station:wmo:42067:1,2015-12-13T08:40Z,30.0430,-88.6490,5.0,6.5,139.7,7.5,'1111122,1111122,1111122' 
CenGOOS,ioos:station:wmo:42067:1,2015-12-13T11:40Z,30.0430,-88.6490,5.0,6.2,140.3,7.2,'1111122,1111122,1111122' 
CenGOOS,ioos:station:wmo:42067:1,2015-12-13T14:40Z,30.0430,-88.6490,5.0,5.0,133.1,6.0,'1111122,1111122,1111122' 
CenGOOS,ioos:station:wmo:42067:1,2015-12-13T17:40Z,30.0430,-88.6490,5.0,7.8,145.7,9.4,'1111122,1111122,1111122' 
CenGOOS,ioos:station:wmo:42067:1,2015-12-13T20:40Z,30.0430,-88.6490,5.0,8.1,152.1,9.4,'1111122,1111122,1111122' 
CenGOOS,ioos:station:wmo:42067:1,2015-12-13T23:40Z,30.0430,-88.6490,5.0,9.4,156.9,11.1,'1111122,1111122,1111122' 
CenGOOS,ioos:station:wmo:42067:1,2015-12-14T02:40Z,30.0430,-88.6490,5.0,10.3,159.5,11.8,'1111122,1111122,1111122' 
CenGOOS,ioos:station:wmo:42067:1,2015-12-14T05:40Z,30.0430,-88.6490,5.0,7.7,176.8,9.5,'1111122,1111122,1111122' 
CenGOOS,ioos:station:wmo:42067:1,2015-12-14T08:40Z,30.0430,-88.6490,5.0,10.6,293.3,12.9,'1111122,1111122,1111122' 
CenGOOS,ioos:station:wmo:42067:1,2015-12-14T11:40Z,30.0430,-88.6490,5.0,6.8,307.2,8.3,'1111122,1111122,1111122' 
CenGOOS,ioos:station:wmo:42067:1,2015-12-14T17:40Z,30.0430,-88.6490,5.0,3.0,256.2,3.9,'1111122,1111122,1111122' 
CenGOOS,ioos:station:wmo:42067:1,2015-12-14T20:40Z,30.0430,-88.6490,5.0,4.3,266.6,5.1,'1111122,1111122,1111122' 
CenGOOS,ioos:station:wmo:42067:1,2015-12-15T02:40Z,30.0430,-88.6490,5.0,5.3,232.5,6.2,'1111122,1111122,1111122' 
CenGOOS,ioos:station:wmo:42067:1,2015-12-15T05:40Z,30.0430,-88.6490,5.0,4.8,249.0,5.8,'1111122,1111122,1111122' 
CenGOOS,ioos:station:wmo:42067:1,2015-12-15T08:40Z,30.0430,-88.6490,5.0,6.3,284.0,7.4,'1111122,1111122,1111122' 
CenGOOS,ioos:station:wmo:42067:1,2015-12-15T11:40Z,30.0430,-88.6490,5.0,3.7,351.3,4.3,'1111122,1111122,1111122' 
CenGOOS,ioos:station:wmo:42067:1,2015-12-15T14:40Z,30.0430,-88.6490,5.0,4.6,53.7,5.4,'1111122,1111122,1111122' 
CenGOOS,ioos:station:wmo:42067:1,2015-12-15T17:40Z,30.0430,-88.6490,5.0,4.7,69.4,5.6,'1111122,1111122,1111122' 
CenGOOS,ioos:station:wmo:42067:1,2015-12-15T20:40Z,30.0430,-88.6490,5.0,5.5,79.8,6.4,'1111122,1111122,1111122' 
CenGOOS,ioos:station:wmo:42067:1,2015-12-15T23:40Z,30.0430,-88.6490,5.0,6.6,113.7,7.6,'1111122,1111122,1111122' 
CenGOOS,ioos:station:wmo:42067:1,2015-12-16T02:40Z,30.0430,-88.6490,5.0,5.0,117.8,5.8,'1111122,1111122,1111122' 
CenGOOS,ioos:station:wmo:42067:1,2015-12-16T05:40Z,30.0430,-88.6490,5.0,3.6,109.1,4.3,'1111122,1111122,1111122' 
CenGOOS,ioos:station:wmo:42067:1,2015-12-16T08:40Z,30.0430,-88.6490,5.0,3.2,88.2,3.8,'1111122,1111122,1111122' 
CenGOOS,ioos:station:wmo:42067:1,2015-12-16T11:40Z,30.0430,-88.6490,5.0,4.2,96.8,5.1,'1111122,1111122,1111122' 
CenGOOS,ioos:station:wmo:42067:1,2015-12-16T14:40Z,30.0430,-88.6490,5.0,4.3,150.8,5.1,'1111122,1111122,1111122' 
CenGOOS,ioos:station:wmo:42067:1,2015-12-16T17:40Z,30.0430,-88.6490,5.0,4.4,183.3,5.0,'1111122,1111122,1111122' 
CenGOOS,ioos:station:wmo:42067:1,2015-12-16T20:40Z,30.0430,-88.6490,5.0,4.5,170.5,5.1,'1111122,1111122,1111122' 
CenGOOS,ioos:station:wmo:42067:1,2015-12-16T23:40Z,30.0430,-88.6490,5.0,4.7,166.1,5.5,'1111122,1111122,1111122' 
CenGOOS,ioos:station:wmo:42067:1,2015-12-17T02:40Z,30.0430,-88.6490,5.0,3.1,240.2,4.4,'1111122,1111122,1111122' 
CenGOOS,ioos:station:wmo:42067:1,2015-12-17T05:40Z,30.0430,-88.6490,5.0,2.9,196.1,3.5,'1111122,1111122,1111122' 
CenGOOS,ioos:station:wmo:42067:1,2015-12-17T08:40Z,30.0430,-88.6490,5.0,3.9,207.4,4.7,'1111122,1111122,1111122' 
CenGOOS,ioos:station:wmo:42067:1,2015-12-17T11:40Z,30.0430,-88.6490,5.0,4.9,284.3,5.8,'1111122,1111122,1111122' 
CenGOOS,ioos:station:wmo:42067:1,2015-12-17T14:40Z,30.0430,-88.6490,5.0,9.4,342.4,11.2,'1111122,1111122,1111122' 
CenGOOS,ioos:station:wmo:42067:1,2015-12-17T20:40Z,30.0430,-88.6490,5.0,5.6,335.7,6.6,'1111122,1111122,1111122' 
CenGOOS,ioos:station:wmo:42067:1,2015-12-17T23:40Z,30.0430,-88.6490,5.0,7.1,328.6,8.5,'1111122,1111122,1111122' 
CenGOOS,ioos:station:wmo:42067:1,2015-12-18T02:40Z,30.0430,-88.6490,5.0,7.8,328.5,9.5,'1111122,1111122,1111122' 
CenGOOS,ioos:station:wmo:42067:1,2015-12-18T05:40Z,30.0430,-88.6490,5.0,9.5,326.3,11.5,'1111122,1111122,1111122' 
CenGOOS,ioos:station:wmo:42067:1,2015-12-18T08:40Z,30.0430,-88.6490,5.0,10.9,338.1,12.8,'1111122,1111122,1111122' 
CenGOOS,ioos:station:wmo:42067:1,2015-12-18T11:40Z,30.0430,-88.6490,5.0,10.4,351.6,13.1,'1111122,1111122,1111122' 
CenGOOS,ioos:station:wmo:42067:1,2015-12-18T14:40Z,30.0430,-88.6490,5.0,9.8,4.0,12.3,'1111122,1111122,1111122' 
CenGOOS,ioos:station:wmo:42067:1,2015-12-18T17:40Z,30.0430,-88.6490,5.0,8.6,345.1,10.4,'1111122,1111122,1111122' 
CenGOOS,ioos:station:wmo:42067:1,2015-12-18T23:40Z,30.0430,-88.6490,5.0,8.3,350.4,10.2,'1111122,1111122,1111122' 
CenGOOS,ioos:station:wmo:42067:1,2015-12-19T02:40Z,30.0430,-88.6490,5.0,8.4,6.1,10.3,'1111122,1111122,1111122' 
CenGOOS,ioos:station:wmo:42067:1,2015-12-19T05:40Z,30.0430,-88.6490,5.0,7.7,21.8,9.5,'1111122,1111122,1111122' 
CenGOOS,ioos:station:wmo:42067:1,2015-12-19T08:40Z,30.0430,-88.6490,5.0,8.3,30.0,11.1,'1111122,1111122,1111122' 
CenGOOS,ioos:station:wmo:42067:1,2015-12-19T11:40Z,30.0430,-88.6490,5.0,7.6,49.6,10.2,'1111122,1111122,1111122' 
CenGOOS,ioos:station:wmo:42067:1,2015-12-19T14:40Z,30.0430,-88.6490,5.0,8.0,59.0,10.2,'1111122,1111122,1111122' 
CenGOOS,ioos:station:wmo:42067:1,2015-12-19T17:40Z,30.0430,-88.6490,5.0,7.4,57.5,9.6,'1111122,1111122,1111122' 
CenGOOS,ioos:station:wmo:42067:1,2015-12-19T20:40Z,30.0430,-88.6490,5.0,5.8,42.0,7.7,'1111122,1111122,1111122' 
CenGOOS,ioos:station:wmo:42067:1,2015-12-20T02:40Z,30.0430,-88.6490,5.0,7.9,58.6,10.0,'1111122,1111122,1111122' 
CenGOOS,ioos:station:wmo:42067:1,2015-12-20T05:40Z,30.0430,-88.6490,5.0,9.2,77.7,11.3,'1111122,1111122,1111122' 
CenGOOS,ioos:station:wmo:42067:1,2015-12-20T08:40Z,30.0430,-88.6490,5.0,8.5,93.3,11.0,'1111122,1111122,1111122' 
CenGOOS,ioos:station:wmo:42067:1,2015-12-20T11:40Z,30.0430,-88.6490,5.0,8.0,119.4,9.8,'1111122,1111122,1111122' 
CenGOOS,ioos:station:wmo:42067:1,2015-12-20T14:40Z,30.0430,-88.6490,5.0,7.0,129.1,9.0,'1111122,1111122,1111122' 
CenGOOS,ioos:station:wmo:42067:1,2015-12-20T17:40Z,30.0430,-88.6490,5.0,5.7,118.7,7.0,'1111122,1111122,1111122' 
CenGOOS,ioos:station:wmo:42067:1,2015-12-20T20:40Z,30.0430,-88.6490,5.0,6.3,115.5,7.9,'1111122,1111122,1111122' 
CenGOOS,ioos:station:wmo:42067:1,2015-12-20T23:40Z,30.0430,-88.6490,5.0,7.2,93.7,8.9,'1111122,1111122,1111122' 
CenGOOS,ioos:station:wmo:42067:1,2015-12-21T02:40Z,30.0430,-88.6490,5.0,7.6,150.6,9.3,'1111122,1111122,1111122' 
CenGOOS,ioos:station:wmo:42067:1,2015-12-21T05:40Z,30.0430,-88.6490,5.0,7.0,156.9,8.2,'1111122,1111122,1111122' 
CenGOOS,ioos:station:wmo:42067:1,2015-12-21T08:40Z,30.0430,-88.6490,5.0,5.0,151.6,5.8,'1111122,1111122,1111122' 
CenGOOS,ioos:station:wmo:42067:1,2015-12-21T11:40Z,30.0430,-88.6490,5.0,1.3,142.3,2.1,'1111122,1111122,1111122' 
CenGOOS,ioos:station:wmo:42067:1,2015-12-21T14:40Z,30.0430,-88.6490,5.0,3.9,82.7,4.6,'1111122,1111122,1111122' 
CenGOOS,ioos:station:wmo:42067:1,2015-12-21T17:40Z,30.0430,-88.6490,5.0,5.3,103.2,6.0,'1111122,1111122,1111122' 
CenGOOS,ioos:station:wmo:42067:1,2015-12-21T20:40Z,30.0430,-88.6490,5.0,3.2,104.3,3.7,'1111122,1111122,1111122' 
CenGOOS,ioos:station:wmo:42067:1,2015-12-21T23:40Z,30.0430,-88.6490,5.0,4.7,156.0,5.3,'1111122,1111122,1111122' 
CenGOOS,ioos:station:wmo:42067:1,2015-12-22T02:40Z,30.0430,-88.6490,5.0,5.1,157.9,5.8,'1111122,1111122,1111122' 
CenGOOS,ioos:station:wmo:42067:1,2015-12-22T05:40Z,30.0430,-88.6490,5.0,3.6,247.8,4.5,'1111122,1111122,1111122' 
CenGOOS,ioos:station:wmo:42067:1,2015-12-22T08:40Z,30.0430,-88.6490,5.0,2.9,265.4,5.3,'1111122,1111122,1111122' 
CenGOOS,ioos:station:wmo:42067:1,2015-12-22T11:40Z,30.0430,-88.6490,5.0,2.6,107.6,3.9,'1111122,1111122,1111122' 
CenGOOS,ioos:station:wmo:42067:1,2015-12-22T14:40Z,30.0430,-88.6490,5.0,4.4,145.3,5.3,'1111122,1111122,1111122' 
CenGOOS,ioos:station:wmo:42067:1,2015-12-22T17:40Z,30.0430,-88.6490,5.0,5.7,177.1,6.4,'1111122,1111122,1111122' 
CenGOOS,ioos:station:wmo:42067:1,2015-12-22T20:40Z,30.0430,-88.6490,5.0,9.0,177.7,10.6,'1111122,1111122,1111122' 
CenGOOS,ioos:station:wmo:42067:1,2015-12-22T23:40Z,30.0430,-88.6490,5.0,10.1,155.7,11.9,'1111122,1111122,1111122' 
CenGOOS,ioos:station:wmo:42067:1,2015-12-23T02:40Z,30.0430,-88.6490,5.0,7.0,147.5,8.8,'1111122,1111122,1111122' 
CenGOOS,ioos:station:wmo:42067:1,2015-12-23T05:40Z,30.0430,-88.6490,5.0,2.1,184.3,3.2,'1111122,1111122,1111122' 
CenGOOS,ioos:station:wmo:42067:1,2015-12-23T08:40Z,30.0430,-88.6490,5.0,7.2,62.7,9.6,'1111122,1111122,1111122' 
CenGOOS,ioos:station:wmo:42067:1,2015-12-23T11:40Z,30.0430,-88.6490,5.0,10.8,147.3,13.2,'1111122,1111122,1111122' 
CenGOOS,ioos:station:wmo:42067:1,2015-12-23T14:40Z,30.0430,-88.6490,5.0,5.1,169.7,6.2,'1111122,1111122,1111122' 
CenGOOS,ioos:station:wmo:42067:1,2015-12-23T17:40Z,30.0430,-88.6490,5.0,7.3,179.5,8.2,'1111122,1111122,1111122' 
CenGOOS,ioos:station:wmo:42067:1,2015-12-23T23:40Z,30.0430,-88.6490,5.0,6.9,190.0,8.3,'1111122,1111122,1111122' 
CenGOOS,ioos:station:wmo:42067:1,2015-12-24T02:40Z,30.0430,-88.6490,5.0,7.3,185.2,8.6,'1111122,1111122,1111122' 
CenGOOS,ioos:station:wmo:42067:1,2015-12-24T05:40Z,30.0430,-88.6490,5.0,6.6,192.1,8.1,'1111122,1111122,1111122' 
CenGOOS,ioos:station:wmo:42067:1,2015-12-24T08:40Z,30.0430,-88.6490,5.0,5.6,194.0,6.5,'1111122,1111122,1111122' 
CenGOOS,ioos:station:wmo:42067:1,2015-12-24T11:40Z,30.0430,-88.6490,5.0,4.8,212.9,6.8,'1111122,1111122,1111122' 
CenGOOS,ioos:station:wmo:42067:1,2015-12-24T14:40Z,30.0430,-88.6490,5.0,6.0,189.9,7.3,'1111122,1111122,1111122' 
CenGOOS,ioos:station:wmo:42067:1,2015-12-24T17:40Z,30.0430,-88.6490,5.0,5.9,191.2,6.9,'1111122,1111122,1111122' 
CenGOOS,ioos:station:wmo:42067:1,2015-12-24T20:40Z,30.0430,-88.6490,5.0,4.0,179.2,5.0,'1111122,1111122,1111122' 
CenGOOS,ioos:station:wmo:42067:1,2015-12-24T23:40Z,30.0430,-88.6490,5.0,5.6,160.7,6.4,'1111122,1111122,1111122' 
CenGOOS,ioos:station:wmo:42067:1,2015-12-25T02:40Z,30.0430,-88.6490,5.0,3.8,161.7,4.6,'1111122,1111122,1111122' 
CenGOOS,ioos:station:wmo:42067:1,2015-12-25T05:40Z,30.0430,-88.6490,5.0,5.8,158.0,6.5,'1111122,1111122,1111122' 
CenGOOS,ioos:station:wmo:42067:1,2015-12-25T08:40Z,30.0430,-88.6490,5.0,3.2,131.7,3.6,'1111122,1111122,1111122' 
CenGOOS,ioos:station:wmo:42067:1,2015-12-25T11:40Z,30.0430,-88.6490,5.0,4.4,152.8,5.0,'1111122,1111122,1111122' 
CenGOOS,ioos:station:wmo:42067:1,2015-12-25T14:40Z,30.0430,-88.6490,5.0,5.2,155.5,5.8,'1111122,1111122,1111122' 
CenGOOS,ioos:station:wmo:42067:1,2015-12-25T17:40Z,30.0430,-88.6490,5.0,4.7,155.2,5.6,'1111122,1111122,1111122' 
CenGOOS,ioos:station:wmo:42067:1,2015-12-25T20:40Z,30.0430,-88.6490,5.0,4.7,162.1,5.4,'1111122,1111122,1111122' 
CenGOOS,ioos:station:wmo:42067:1,2015-12-25T23:40Z,30.0430,-88.6490,5.0,4.3,155.6,4.7,'1111122,1111122,1111122' 
CenGOOS,ioos:station:wmo:42067:1,2015-12-26T02:40Z,30.0430,-88.6490,5.0,4.0,145.6,4.7,'1111122,1111122,1111122' 
CenGOOS,ioos:station:wmo:42067:1,2015-12-26T08:40Z,30.0430,-88.6490,5.0,4.1,120.5,4.7,'1111122,1111122,1111122' 
CenGOOS,ioos:station:wmo:42067:1,2015-12-26T11:40Z,30.0430,-88.6490,5.0,4.2,106.7,4.8,'1111122,1111122,1111122' 
CenGOOS,ioos:station:wmo:42067:1,2015-12-26T17:40Z,30.0430,-88.6490,5.0,4.3,94.5,5.1,'1111122,1111122,1111122' 
CenGOOS,ioos:station:wmo:42067:1,2015-12-26T20:40Z,30.0430,-88.6490,5.0,4.5,102.5,5.2,'1111122,1111122,1111122' 
CenGOOS,ioos:station:wmo:42067:1,2015-12-26T23:40Z,30.0430,-88.6490,5.0,5.3,133.0,5.9,'1111122,1111122,1111122' 
CenGOOS,ioos:station:wmo:42067:1,2015-12-27T02:40Z,30.0430,-88.6490,5.0,4.8,122.3,5.4,'1111122,1111122,1111122' 
CenGOOS,ioos:station:wmo:42067:1,2015-12-27T05:40Z,30.0430,-88.6490,5.0,4.5,123.9,5.1,'1111122,1111122,1111122' 
CenGOOS,ioos:station:wmo:42067:1,2015-12-27T08:40Z,30.0430,-88.6490,5.0,3.4,101.5,3.9,'1111122,1111122,1111122' 
CenGOOS,ioos:station:wmo:42067:1,2015-12-27T11:40Z,30.0430,-88.6490,5.0,5.2,114.6,5.9,'1111122,1111122,1111122' 
CenGOOS,ioos:station:wmo:42067:1,2015-12-27T14:40Z,30.0430,-88.6490,5.0,4.9,138.6,5.6,'1111122,1111122,1111122' 
CenGOOS,ioos:station:wmo:42067:1,2015-12-27T20:40Z,30.0430,-88.6490,5.0,6.1,119.2,7.1,'1111122,1111122,1111122' 
CenGOOS,ioos:station:wmo:42067:1,2015-12-27T23:40Z,30.0430,-88.6490,5.0,6.3,122.9,7.2,'1111122,1111122,1111122' 
CenGOOS,ioos:station:wmo:42067:1,2015-12-29T11:40Z,30.0430,-88.6490,5.0,4.7,3.8,6.0,'1111122,1111122,1111122' 
CenGOOS,ioos:station:wmo:42067:1,2015-12-29T17:40Z,30.0430,-88.6490,5.0,2.7,0.9,3.7,'1111122,1111122,1111122' 
CenGOOS,ioos:station:wmo:42067:1,2015-12-29T20:40Z,30.0430,-88.6490,5.0,2.2,28.8,3.2,'1111122,1111122,1111122' 
CenGOOS,ioos:station:wmo:42067:1,2015-12-29T23:40Z,30.0430,-88.6490,5.0,2.9,52.9,3.6,'1111122,1111122,1111122' 
CenGOOS,ioos:station:wmo:42067:1,2015-12-30T05:40Z,30.0430,-88.6490,5.0,5.9,97.0,7.0,'1111122,1111122,1111122' 
CenGOOS,ioos:station:wmo:42067:1,2015-12-30T08:40Z,30.0430,-88.6490,5.0,1.8,47.4,2.9,'1111122,1111122,1111122' 
CenGOOS,ioos:station:wmo:42067:1,2015-12-30T14:40Z,30.0430,-88.6490,5.0,9.8,12.5,11.3,'1111122,1111122,1111122' 
CenGOOS,ioos:station:wmo:42067:1,2015-12-30T17:40Z,30.0430,-88.6490,5.0,7.6,31.9,8.9,'1111122,1111122,1111122' 
CenGOOS,ioos:station:wmo:42067:1,2015-12-30T20:40Z,30.0430,-88.6490,5.0,8.4,19.3,10.2,'1111122,1111122,1111122' 
CenGOOS,ioos:station:wmo:42067:1,2015-12-30T23:40Z,30.0430,-88.6490,5.0,8.6,20.1,10.3,'1111122,1111122,1111122' 
CenGOOS,ioos:station:wmo:42067:1,2015-12-31T02:40Z,30.0430,-88.6490,5.0,8.7,39.0,10.0,'1111122,1111122,1111122' 
CenGOOS,ioos:station:wmo:42067:1,2015-12-31T05:40Z,30.0430,-88.6490,5.0,6.0,61.8,7.1,'1111122,1111122,1111122' 
CenGOOS,ioos:station:wmo:42067:1,2015-12-31T11:40Z,30.0430,-88.6490,5.0,9.3,5.4,10.8,'1111122,1111122,1111122' 
CenGOOS,ioos:station:wmo:42067:1,2015-12-31T14:40Z,30.0430,-88.6490,5.0,9.7,5.5,11.4,'1111122,1111122,1111122' 
CenGOOS,ioos:station:wmo:42067:1,2015-12-31T17:40Z,30.0430,-88.6490,5.0,9.3,8.6,11.1,'1111122,1111122,1111122' 
CenGOOS,ioos:station:wmo:42067:1,2015-12-31T20:40Z,30.0430,-88.6490,5.0,9.1,7.4,11.1,'1111122,1111122,1111122' 
 
DISCLAIMER: The Gulf of Mexico Coastal and Ocean Observing (GCOOS) Data Portal aggregates data from the regional data providers for the convenience of all data users. Data published on this website should not be used for navigation or certain other uses as we cannot guarantee data accuracy or availability. The data and delivery services are provided 'as is' without warranty of any kind. Data Source: Gulf of Mexico Coastal Ocean Observing System Data Portal (http://data.gcoos.org/) 
